Regional Weather Roundup
Issued by NWS Wilmington, NC

Home | Current Version | Previous Version | Text Only | Print | Product List | Glossary On
Versions: 1 2 3 4 5 6 7 8 9 10 11 12 13 14 15 16 17 18 19 20 21 22 23 24 25 26 27 28 29 30 31 32 33 34 35 36 37 38 39 40 41 42 43 44 45 46 47 48 49 50
000
ASUS42 KILM 020110
RWRILM
RWRILM
REGIONAL HOURLY WEATHER ROUNDUP
NATIONAL WEATHER SERVICE WILMINGTON NC
900 PM EDT WED OCT 01 2014

NOTE: "FAIR" INDICATES FEW OR NO CLOUDS BELOW 12,000 FEET WITH NO
SIGNIFICANT WEATHER AND/OR OBSTRUCTIONS TO VISIBILITY.

...............WFO WILMINGTON COUNTY WARNING AREA...............

......COASTAL NC AND SC COUNTIES......

CITY           SKY/WX    TMP DP  RH WIND       PRES   REMARKS
WILMINGTON     CLEAR     69  66  90 CALM      30.02R
SOUTHPORT      CLEAR     68  64  88 CALM      30.02R
N MYRTLE BEACH CLEAR     69  66  90 CALM      30.02R
MYRTLE BEACH   CLEAR     72  64  78 S6        30.02R

......INLAND NC AND SC COUNTIES.......

CITY           SKY/WX    TMP DP  RH WIND       PRES   REMARKS
LUMBERTON      CLOUDY    73  67  81 CALM      30.01R
ELIZABETHTOWN  CLEAR     70  67  90 CALM      30.02R
WHITEVILLE     CLEAR     69  66  89 CALM      30.02R
FLORENCE       MOCLDY    73  68  84 CALM      30.01R
DARLINGTON     PTCLDY    70  64  83 CALM      30.02R

....................REST OF NORTH CAROLINA......................

.........EASTERN NC.........

CITY           SKY/WX    TMP DP  RH WIND       PRES   REMARKS
CAPE HATTERAS  PTCLDY    69  65  86 VRB6      30.01R
JACKSONVILLE   PTCLDY    66  63  88 CALM      30.03R
MOREHEAD CITY  PTCLDY    70  66  87 CALM      30.02R
KENANSVILLE    CLEAR     65  64  95 CALM      30.03R
NEW BERN       PTCLDY    68  64  87 CALM      30.03R
ELIZABETH CITY CLEAR     67  64  90 NE6       30.02R

.........CENTRAL NC.........

CITY           SKY/WX    TMP DP  RH WIND       PRES   REMARKS
RALEIGH DURHAM PTCLDY    66  62  87 CALM      30.03R
ROCKY MOUNT    CLEAR     65  63  93 CALM      30.02R FOG
ROANOKE RAPIDS NOT AVBL
FAYETTEVILLE   PTCLDY    70  66  87 CALM      30.02R
HOFFMAN        CLEAR     68  64  88 CALM      30.04R

.........WESTERN NC.........

CITY           SKY/WX    TMP DP  RH WIND       PRES   REMARKS
CHARLOTTE      PTCLDY    74  61  63 E8        30.02R
GREENSBORO     MOCLDY    68  64  87 E3        30.03R
HICKORY        NOT AVBL
BOONE          NOT AVBL
ASHEVILLE      NOT AVBL

.....................REST OF SOUTH CAROLINA.....................

.........EASTERN SC.........

CITY           SKY/WX    TMP DP  RH WIND       PRES   REMARKS
CHARLESTON     PTCLDY    73  63  70 CALM      30.01R
BEAUFORT MCAS  CLEAR     72  68  87 CALM      30.01R
HILTON HEAD    NOT AVBL

.........CENTRAL SC.........

CITY           SKY/WX    TMP DP  RH WIND       PRES   REMARKS
COLUMBIA       PTCLDY    75  62  64 VRB3      29.99R
ORANGEBURG     CLEAR     71  64  78 CALM      30.01R
SUMTER SHAW    CLEAR     72  65  80 S2        29.99R

.........WESTERN SC.........

CITY           SKY/WX    TMP DP  RH WIND       PRES   REMARKS
GREENVILLE     NOT AVBL
ROCK HILL      CLEAR     66  63  90 CALM      30.02R
ANDERSON       CLEAR     68  63  84 CALM      30.01R
CLEMSON        NOT AVBL
GREENWOOD      CLEAR     68  63  84 CALM      30.02R


...................COASTAL AND OFFSHORE REPORTS..................

................LOCAL PIERS AND NC RESERVE................


STATION/POSITION TIME  SKY/WX   TEMP    WIND        PRES    VSBY
                                AIR SEA DIR/SP/G
                 (UTC)          (F)     (DEG/KT/KT) (MB)    (MI)
JOHNY MRCER PIER 0100            75 79  150/  1/  3 1016.0R
NC RESRV MASNBRO 0000            72        CALM     1015.0S
OCEAN CREST PIER NOT AVBL
SPRINGMAID  PIER 0100            75 76  180/  5/  6 1016.4R


................COASTAL AND OFFSHORE BUOYS................


STATION/POSITION TIME  SKY/WX   TEMP    WIND        PRES    VSBY
                                AIR SEA DIR/SP/G
                 (UTC)          (F)     (DEG/KT/KT) (MB)    (MI)
DIMNDSHOAL 41025 0100            71      10/ 16/ 17 1015.8R
WVE H/P(F/S)=  3/ 8 WND WVE H/P(F/S)=  2/ 4 SWL H/P/D(F/S/D)=  2/ 80/ 8

CAPE LOOKOUT     0000            74      50/  8/ 10 1015.5R
ONSLOW BAY 41036 0000            76 79   60/  8/ 10 1015.6R
5 WRITEBCH 41038 NOT AVBL
MASONBORO  41110 NOT AVBL
WILM HARBR 41108 NOT AVBL
27WRITEBCH 41037 NOT AVBL
FRYING PAN 41013 NOT AVBL
SUNST NRSH 41024 0000            75     170/  4/  6 1015.8R
CAPRS NRSH 41029 0000            75     130/  8/ 10   N/A
EDISTO     41004 0100            77 81   60/  8/ 10 1015.8R
WVE H/P(F/S)=  2/ 7 WND WVE H/P(F/S)=  2/ 4 SWL H/P/D(F/S/D)=  2/ 7



..........OFFSHORE BUOYS BEYOND 100 NM OFFSHORE...........
.....IN A TRIANGLE---HAT TO BERMUDA TO BAHAMAS TO HAT.....


STATION/POSITION TIME  SKY/WX   TEMP    WIND        PRES    VSBY
                                AIR SEA DIR/SP/G
                 (UTC)          (F)     (DEG/KT/KT) (MB)    (MI)
150E HAT   41001 NOT AVBL
W BERMUDA  41048 0002            79 81   50/  2/  2 1011.8
WVE H/P(F/S)=  3/ 7 WND WVE H/P(F/S)=  2/ 4 SWL H/P/D(F/S/D)=  3/180/ 7

ATLANTIC S 41049 0023            82 84  250/ 19/ 23 1014.2
WVE H/P(F/S)=  6/ 7 WND WVE H/P(F/S)=  7/ 7 SWL H/P/D(F/S/D)=  2/ 40/11

E BAHAMAS  41046 0001            83 84  230/  8/ 10 1016.9R
WVE H/P(F/S)=  3/ 5 WND WVE H/P(F/S)=  2/ 4 SWL H/P/D(F/S/D)=  3/180/ 5

NE BAHAMAS 41047 0044            82 83  270/ 10/ 14 1014.0R
WVE H/P(F/S)=  5/ 7 WND WVE H/P(F/S)=  2/ 4 SWL H/P/D(F/S/D)=  3/270/ 7

120E CANVRL41010 0100            81 85   60/ 10/ 12 1014.2R
WVE H/P(F/S)=  3/ 7 WND WVE H/P(F/S)=  2/ 3 SWL H/P/D(F/S/D)=  3/ 10/ 7


END


USA.gov is the U.S. government's official web portal to all federal, state and local government web resources and services.